[[{"header":{"parameterUnit":"m.s-1","parameterCategory":1,"la1":30.2991,"la2":30.254,"lo1":-89.0895,"lo2":-89.0444,"dy":0.0017,"dx":0.0017,"nx":28,"ny":28,"refTime":"2025-12-06T09:00:00:Z","depth":0,"parameterNumber":2,"parameterNumberName":"U-component_of_WINDS"},"data":[0,0,0,0,0,0,0,0,0,0,0,0,0,0,0,0,0,0,0,0,0,0,0,0,0,0,0,0,0,0,0,0,0,0,0,0,0,0,0,0,0,0,0,0,0,0,0,0,0,0,0,0,0,0,0,0,0,0,-3.2984,-3.2985,0,-3.3071,-3.3072,-3.3073,-3.3011,-3.3008,-3.3005,-3.3003,-3.3094,-3.3099,-3.3104,0,0,0,0,0,0,0,0,0,0,0,0,0,-3.2764,-3.2768,-3.2984,-3.2985,-3.2986,-3.3071,-3.3072,-3.3073,-3.3011,-3.3008,-3.3004,-3.3001,-3.3093,-3.3099,-3.3105,0,0,0,0,0,0,0,0,0,0,0,0,0,-3.2856,-3.277,-3.2983,-3.2965,-3.2964,-3.3071,-3.3072,-3.3074,-3.3012,-3.3008,-3.3004,-3.3,-3.3091,-3.3098,-3.3106,-3.3236,0,0,-3.3129,-3.3132,0,0,0,0,0,0,0,0,-3.2851,-3.2865,-3.2967,-3.2966,-3.2966,-3.3026,-3.3028,-3.3128,-3.3013,-3.2994,-3.3002,-3.2998,-3.3075,-3.3084,-3.3109,-3.324,-3.3244,-3.3129,-3.3134,-3.3137,-3.3139,0,0,0,0,0,0,0,-3.2845,-3.286,-3.3018,-3.2968,-3.2968,-3.2953,-3.2961,-3.3047,-3.3057,-3.2995,-3.2991,-3.3002,-3.3074,-3.3102,-3.3111,-3.3245,-3.3129,-3.3136,-3.3141,-3.3144,-3.3488,-3.3492,0,0,0,0,0,0,-3.284,-3.2856,-3.3015,-3.3021,-3.2897,-3.296,-3.297,-3.3011,-3.3056,-3.3059,-3.3006,-3.2999,-3.3091,-3.3102,-3.3114,-3.327,-3.3137,-3.3144,-3.3149,-3.3483,-3.3489,-3.3494,0,0,0,0,0,0,-3.2836,-3.2855,-3.3012,-3.2937,-3.2956,-3.2968,-3.3015,-3.3015,-3.3043,-3.3064,-3.3065,-3.3032,-3.3089,-3.3103,-3.3206,-3.3272,-3.3148,-3.3155,-3.3478,-3.3485,-3.3491,-3.3583,0,0,0,0,0,0,-3.283,-3.2854,-3.2903,-3.2939,-3.296,-3.3102,-3.3019,-3.3019,-3.3056,-3.3048,-3.3089,-3.3092,-3.3086,-3.3195,-3.3214,-3.328,-3.316,-3.3472,-3.3481,-3.3489,-3.3574,-3.3592,-3.3607,0,0,0,0,0,-3.2822,-3.2926,-3.2906,-3.2925,-3.3022,-3.3106,-3.3118,-3.3109,-3.3061,-3.3111,-3.3124,-3.3091,-3.3262,-3.3206,-3.3226,-3.3297,-3.3468,-3.3478,-3.3489,-3.3566,-3.3588,-3.3607,0,0,0,0,0,0,-3.2898,-3.293,-3.2908,-3.3026,-3.3064,-3.3095,-3.3158,-3.3133,-3.3185,-3.3176,-3.3163,-3.3173,-3.328,-3.3298,-3.3236,-3.3425,-3.3357,-3.3372,-3.3409,-3.343,-3.3447,-3.3441,-3.3167,0,0,0,0,0,-3.2928,-3.2993,-3.3018,-3.312,-3.314,-3.3146,-3.3182,-3.3172,-3.321,-3.3226,-3.3247,-3.3286,-3.3349,-3.339,-3.3449,-3.3576,-3.3584,-3.3634,-3.3651,-3.3664,-3.3678,-3.3746,-3.3769,-3.3528,-3.3528,-3.3528,0,0,-3.2992,-3.3018,-3.306,-3.3136,-3.3164,-3.3232,-3.316,-3.3235,-3.3286,-3.3238,-3.3336,-3.3353,-3.3396,-3.3511,-3.3563,-3.3529,-3.3746,-3.3677,-3.3688,-3.3694,-3.3759,-3.3782,-3.3802,-3.3535,-3.3534,-3.3533,0,0,-3.3143,-3.3169,-3.3257,-3.3286,-3.3329,-3.3332,-3.3353,-3.3389,-3.3398,-3.3496,-3.3461,-3.3521,-3.3629,-3.3662,-3.3692,-3.3855,-3.3827,-3.3875,-3.3963,-3.403,-3.4049,-3.4066,-3.4125,-3.4146,-3.3888,-3.3888,-3.3888,0,-3.3218,-3.3319,-3.3305,-3.3383,-3.3418,-3.3377,-3.3466,-3.3495,-3.3556,-3.3581,-3.3542,-3.3677,-3.3703,-3.3825,-3.3865,-3.3891,-3.3915,-3.3871,-3.4047,-3.4064,-3.4079,-3.4135,-3.4157,-3.3894,-3.3893,-3.3893,-3.3892,0,-3.3408,-3.3478,-3.3544,-3.3603,-3.3645,-3.3728,-3.3728,-3.3773,-3.3758,-3.3766,-3.3867,-3.3896,-3.396,-3.3988,-3.3975,-3.4109,-3.4087,-3.4048,-3.398,-3.4108,-3.4161,-3.4182,-3.3902,-3.39,-3.3898,-3.3897,0,0,-3.361,-3.366,-3.3685,-3.3711,-3.3755,-3.3809,-3.3891,-3.3953,-3.3991,-3.4034,-3.4103,-3.4195,-3.4159,-3.4194,-3.4184,-3.4243,-3.4371,-3.4196,-3.4197,-3.4229,-3.4521,-3.4551,-3.4576,-3.4352,-3.4356,-3.4359,-3.4518,0,-3.3764,-3.3906,-3.3896,-3.403,-3.4095,-3.4057,-3.4128,-3.4163,-3.4172,-3.4229,-3.424,-3.4305,-3.4253,-3.4273,-3.433,-3.4343,-3.443,-3.4332,-3.4416,-3.4419,-3.4407,-3.4603,-3.4635,-3.4783,-3.4538,-3.4541,-3.4544,0,-3.3963,-3.4012,-3.4152,-3.4186,-3.4214,-3.4278,-3.4334,-3.4389,-3.4428,-3.443,-3.4469,-3.445,-3.4532,-3.4462,-3.4576,-3.451,-3.4544,-3.4556,-3.4561,-3.4569,-3.449,-3.4617,-3.483,-3.4853,-3.4576,-3.4573,-3.4571,0,-3.4098,-3.4199,-3.4296,-3.4319,-3.4361,-3.4407,-3.4427,-3.4462,-3.45,-3.4549,-3.4574,-3.4632,-3.4664,-3.471,-3.4707,-3.4656,-3.4824,-3.4753,-3.4829,-3.483,-3.4867,-3.4865,-3.5089,-3.4888,-3.4888,-3.4887,-3.4887,0,-3.4271,-3.4359,-3.4357,-3.4416,-3.4513,-3.4501,-3.4598,-3.4613,-3.4644,-3.4706,-3.4677,-3.4736,-3.4728,-3.4788,-3.4786,-3.4881,-3.4896,-3.4901,-3.49,-3.4904,-3.4904,-3.4927,-3.4917,-3.4893,-3.4892,-3.4891,-3.489,0,-3.4438,-3.444,-3.4544,-3.4575,-3.4585,-3.4655,-3.4682,-3.4739,-3.4745,-3.4824,-3.4842,-3.4853,-3.4921,-3.4923,-3.5002,-3.5,-3.5117,-3.5104,-3.5104,-3.5102,-3.5179,-3.5172,-3.5426,-3.5459,-3.5236,-3.5238,-3.524,0,-3.4549,-3.4616,-3.4654,-3.4693,-3.4716,-3.4779,-3.4818,-3.4809,-3.485,-3.4899,-3.4951,-3.5016,-3.5068,-3.518,-3.5195,-3.5256,-3.5244,-3.5329,-3.5253,-3.5256,-3.5246,-3.5243,-3.525,-3.5344,-3.5347,-3.5349,-3.5351,0,-3.4747,-3.4744,-3.48,-3.4857,-3.4903,-3.4948,-3.4989,-3.5023,-3.5018,-3.5067,-3.5136,-3.5177,-3.5257,-3.5323,-3.5381,-3.5402,-3.5377,-3.5374,-3.5395,-3.5401,-3.5399,-3.5402,-3.5146,-3.5369,-3.5367,-3.5366,-3.5365,-3.5364,-3.489,-3.4947,-3.4982,-3.5046,-3.5076,-3.5115,-3.517,-3.5183,-3.524,-3.5304,-3.5296,-3.5373,-3.5411,-3.5487,-3.5513,-3.5574,-3.5544,-3.5575,-3.5582,-3.559,-3.5599,-3.5388,-3.5584,-3.5584,-3.5583,-3.5583,-3.5582,0,-3.5086,-3.5106,-3.5165,-3.5223,-3.5273,-3.5243,-3.5287,-3.5331,-3.54,-3.5437,-3.5488,-3.5569,-3.5633,-3.5653,-3.5714,-3.576,-3.5749,-3.5776,-3.5773,-3.5779,-3.5621,-3.5597,-3.5784,-3.5784,-3.5784,-3.5784,-3.5784,-3.5783,-3.5194,-3.5289,-3.5291,-3.5401,-3.5421,-3.5496,-3.5524,-3.556,-3.5589,-3.568,-3.5733,-3.5745,-3.5775,-3.5839,-3.5897,-3.5901,-3.5925,-3.5958,-3.5957,-3.581,-3.579,-3.5771,-3.5748,-3.5963,-3.5963,-3.6109,-3.6111,-3.6112]},{"header":{"parameterUnit":"m.s-1","parameterCategory":1,"la1":30.2991,"la2":30.254,"lo1":-89.0895,"lo2":-89.0444,"dy":0.0017,"dx":0.0017,"nx":28,"ny":28,"refTime":"2025-12-06T09:00:00:Z","depth":0,"parameterNumber":3,"parameterNumberName":"V-component_of_WINDS"},"data":[0,0,0,0,0,0,0,0,0,0,0,0,0,0,0,0,0,0,0,0,0,0,0,0,0,0,0,0,0,0,0,0,0,0,0,0,0,0,0,0,0,0,0,0,0,0,0,0,0,0,0,0,0,0,0,0,0,0,-2.0268,-2.0269,0,-2.0336,-2.0337,-2.0338,-2.0338,-2.0337,-2.0336,-2.0335,-2.0404,-2.0407,-2.0409,0,0,0,0,0,0,0,0,0,0,0,0,0,-2.0137,-2.0139,-2.0268,-2.0269,-2.027,-2.0336,-2.0337,-2.0338,-2.0338,-2.0337,-2.0336,-2.0335,-2.0403,-2.0406,-2.041,0,0,0,0,0,0,0,0,0,0,0,0,0,-2.0198,-2.014,-2.0268,-2.0278,-2.0279,-2.0336,-2.0337,-2.0338,-2.0338,-2.0337,-2.0335,-2.0334,-2.0402,-2.0406,-2.041,-2.0461,0,0,-2.0422,-2.0424,0,0,0,0,0,0,0,0,-2.0195,-2.0203,-2.0275,-2.0277,-2.0279,-2.0327,-2.0316,-2.0379,-2.0338,-2.0316,-2.0335,-2.0333,-2.038,-2.0385,-2.0401,-2.0465,-2.0468,-2.0423,-2.0425,-2.0427,-2.0428,0,0,0,0,0,0,0,-2.019,-2.02,-2.0295,-2.0276,-2.0279,-2.0278,-2.0285,-2.0328,-2.0354,-2.0318,-2.0318,-2.0326,-2.038,-2.0397,-2.0403,-2.0469,-2.0422,-2.0426,-2.0429,-2.043,-2.0577,-2.0578,0,0,0,0,0,0,-2.0184,-2.0196,-2.0293,-2.0297,-2.0233,-2.0282,-2.029,-2.0313,-2.0354,-2.0359,-2.0327,-2.0325,-2.0391,-2.0398,-2.0405,-2.0467,-2.0427,-2.043,-2.0433,-2.0575,-2.0577,-2.0579,0,0,0,0,0,0,-2.0181,-2.0193,-2.029,-2.0247,-2.0259,-2.0285,-2.0311,-2.0315,-2.0332,-2.0361,-2.0365,-2.0339,-2.039,-2.0399,-2.0447,-2.047,-2.0432,-2.0436,-2.0574,-2.0576,-2.0578,-2.0593,0,0,0,0,0,0,-2.0178,-2.0192,-2.0212,-2.0247,-2.0262,-2.0332,-2.0313,-2.0317,-2.0339,-2.0338,-2.0374,-2.0378,-2.039,-2.0441,-2.0451,-2.0475,-2.0439,-2.0572,-2.0575,-2.0577,-2.059,-2.0595,-2.0599,0,0,0,0,0,-2.0173,-2.0214,-2.0213,-2.0225,-2.0287,-2.0333,-2.0341,-2.0354,-2.0341,-2.0361,-2.0379,-2.0377,-2.0466,-2.0446,-2.0457,-2.0482,-2.057,-2.0574,-2.0577,-2.0588,-2.0594,-2.0599,0,0,0,0,0,0,-2.018,-2.0218,-2.0218,-2.0272,-2.0299,-2.0333,-2.0359,-2.0359,-2.0391,-2.0389,-2.0402,-2.0411,-2.0458,-2.0475,-2.0453,-2.0534,-2.0516,-2.0522,-2.0521,-2.0527,-2.0531,-2.0526,-2.0442,0,0,0,0,0,-2.0188,-2.0222,-2.0254,-2.0298,-2.0311,-2.0333,-2.0353,-2.036,-2.0389,-2.0401,-2.0423,-2.045,-2.0484,-2.0507,-2.0539,-2.0593,-2.06,-2.0615,-2.062,-2.0623,-2.0628,-2.0657,-2.0664,-2.059,-2.059,-2.059,0,0,-2.0205,-2.023,-2.025,-2.03,-2.0322,-2.0356,-2.0342,-2.038,-2.0406,-2.0406,-2.0453,-2.047,-2.0502,-2.0552,-2.0575,-2.0568,-2.065,-2.0628,-2.063,-2.0633,-2.0661,-2.0668,-2.0674,-2.0592,-2.0592,-2.0591,0,0,-2.0253,-2.0275,-2.0314,-2.0336,-2.037,-2.0384,-2.0393,-2.0426,-2.0438,-2.0484,-2.0485,-2.0516,-2.0574,-2.0597,-2.0616,-2.0671,-2.067,-2.0681,-2.0705,-2.0733,-2.0739,-2.0744,-2.0764,-2.077,-2.0686,-2.0686,-2.0686,0,-2.0269,-2.0322,-2.0334,-2.0371,-2.0393,-2.0394,-2.0434,-2.0455,-2.0497,-2.0511,-2.0502,-2.0575,-2.0596,-2.0652,-2.0665,-2.0681,-2.0691,-2.0678,-2.0737,-2.0742,-2.0747,-2.0766,-2.0773,-2.0687,-2.0687,-2.0687,-2.0687,0,-2.034,-2.0376,-2.0403,-2.0444,-2.0469,-2.0507,-2.0524,-2.0547,-2.0552,-2.0566,-2.0614,-2.0639,-2.0677,-2.0691,-2.0696,-2.0747,-2.0741,-2.0734,-2.0717,-2.0755,-2.0773,-2.0781,-2.0689,-2.0689,-2.0688,-2.0688,0,0,-2.0395,-2.0442,-2.0452,-2.047,-2.0506,-2.0535,-2.0572,-2.0609,-2.0629,-2.0657,-2.0689,-2.0738,-2.0732,-2.0753,-2.0761,-2.0785,-2.0827,-2.0775,-2.0776,-2.0784,-2.0884,-2.0889,-2.0897,-2.0826,-2.0827,-2.0829,-2.0881,0,-2.0447,-2.0515,-2.0526,-2.0585,-2.0618,-2.062,-2.0653,-2.0678,-2.0693,-2.0723,-2.0738,-2.0773,-2.0762,-2.0775,-2.0799,-2.0816,-2.0847,-2.0813,-2.0855,-2.0857,-2.0848,-2.0907,-2.0912,-2.0961,-2.0888,-2.089,-2.089,0,-2.0517,-2.0547,-2.061,-2.0641,-2.0655,-2.0685,-2.0719,-2.0748,-2.0777,-2.0785,-2.0809,-2.0813,-2.0852,-2.0833,-2.0886,-2.0862,-2.088,-2.0891,-2.0893,-2.0898,-2.0876,-2.0913,-2.0977,-2.0984,-2.0902,-2.0901,-2.09,0,-2.0551,-2.0607,-2.0652,-2.0667,-2.0705,-2.0726,-2.0742,-2.077,-2.0791,-2.0821,-2.0835,-2.0869,-2.0887,-2.0913,-2.0926,-2.0911,-2.0978,-2.096,-2.0986,-2.0986,-2.1001,-2.1,-2.1068,-2.1012,-2.1012,-2.1012,-2.1012,0,-2.0608,-2.0646,-2.0668,-2.0695,-2.0737,-2.075,-2.0791,-2.0807,-2.0831,-2.0861,-2.0865,-2.0893,-2.0908,-2.0938,-2.0949,-2.0991,-2.0999,-2.1007,-2.1009,-2.1007,-2.1006,-2.1019,-2.1016,-2.1014,-2.1013,-2.1013,-2.1013,0,-2.0653,-2.067,-2.0718,-2.075,-2.0758,-2.0788,-2.0815,-2.0841,-2.0855,-2.0893,-2.0902,-2.0924,-2.0959,-2.0975,-2.1019,-2.1025,-2.1074,-2.1073,-2.1064,-2.1065,-2.109,-2.1088,-2.117,-2.1181,-2.1117,-2.1118,-2.1118,0,-2.0689,-2.0718,-2.0752,-2.0773,-2.079,-2.0823,-2.0844,-2.0857,-2.0879,-2.0914,-2.0936,-2.0971,-2.1001,-2.1057,-2.1077,-2.111,-2.1111,-2.1137,-2.1116,-2.1112,-2.1111,-2.1109,-2.1112,-2.1141,-2.1142,-2.1142,-2.1143,0,-2.075,-2.0756,-2.0787,-2.0821,-2.0847,-2.0874,-2.09,-2.0917,-2.0933,-2.0958,-2.0995,-2.1017,-2.1061,-2.1097,-2.1131,-2.1148,-2.1148,-2.1149,-2.1157,-2.1155,-2.1148,-2.1152,-2.1075,-2.1148,-2.1147,-2.1147,-2.1146,-2.1146,-2.0791,-2.0817,-2.0845,-2.088,-2.0901,-2.0925,-2.0951,-2.0968,-2.0999,-2.1036,-2.1041,-2.108,-2.1107,-2.1153,-2.1171,-2.1201,-2.1195,-2.1206,-2.1209,-2.1212,-2.1213,-2.1143,-2.1207,-2.1207,-2.1207,-2.1207,-2.1207,0,-2.0853,-2.0871,-2.0902,-2.0939,-2.0966,-2.0963,-2.0992,-2.1015,-2.1049,-2.1074,-2.1102,-2.1144,-2.1178,-2.1199,-2.1233,-2.1253,-2.1254,-2.1262,-2.126,-2.1264,-2.1217,-2.1207,-2.126,-2.126,-2.126,-2.126,-2.126,-2.126,-2.0888,-2.0931,-2.0941,-2.0994,-2.1012,-2.105,-2.1066,-2.1089,-2.1109,-2.1155,-2.1183,-2.1197,-2.122,-2.1256,-2.1287,-2.1292,-2.1304,-2.1312,-2.1317,-2.1273,-2.1268,-2.1262,-2.1253,-2.1315,-2.1315,-2.1362,-2.1362,-2.1363]}]]